sat.trackr.live / text

‹ back to catalog

STARLINK-4420

NORAD 53654 · 2022-105G

PAYLOAD ACTIVE UNKNOWN

§ Identity

Operator
Country
US
Launch date
2022-08-31
Launch site
AFWTR
Launch vehicle
Mass (kg)
RCS (m²)

Purposes: comms

External: N2YO · Heavens-Above · Gunter

§ Orbital elements

Epoch: 2026-09-20T22:30:18.699552Z

Period
93.91 min
Inclination
97.2846°
Eccentricity
0.0001280
Mean motion
15.33443316 rev/d
Perigee alt
464.7 km
Apogee alt
466.4 km
Semi-major
6,843.7 km
B*
4.7363e-5
RAAN
140.6620°
Arg perigee
87.6011°
Mean anomaly
272.5378°
Rev number
22,280

§ Raw data

STARLINK-44201 53654U 22105G   26263.93771643  .00001454  00000+0  47363-4 0  99922 53654  97.2846 140.6620 0001280  87.6011 272.5378 15.33443316222805

JSON: /api/v1/satellites/53654 · /tle

For live sub-satellite position, see the globe view (requires WebGL).

§ Visibility from observer

Set your observer location to see the next 7 days of passes ≥ 10°. The values pass through the URL so the page stays shareable.

No JS? Fill the form by hand. The geolocation button needs JavaScript.